TAP1810 LPPR-LPPT

Flight info

Callsign TAP1810
Flight time 0h 31m
Altitude 33000
Route MANIK2R MANIK DCT ABRIL DCT XAMAX XAMAX2B
Aircraft A320/M-SDE3FGHIRWY/LB1

Departure

Time 2026-05-08 10:24
Airport Francisco de Sá Carneiro Airport (LPPR)

Arrival

Time 2026-05-08 10:56
Airport Lisbon Humberto Delgado Airport (LPPT)
Time Latitude Longitude Altitude Speed Heading
2026-05-08 09:56 41.23683 -8.67257 258 ft 0 kts 83°
2026-05-08 10:07 41.23682 -8.67267 258 ft 2 kts 83°
2026-05-08 10:07 41.23680 -8.67289 258 ft 2 kts 83°
2026-05-08 10:07 41.23678 -8.67311 258 ft 2 kts 109°
2026-05-08 10:07 41.23683 -8.67332 258 ft 2 kts 66°
2026-05-08 10:08 41.23673 -8.67347 258 ft 2 kts
2026-05-08 10:08 41.23666 -8.67347 258 ft 0 kts
2026-05-08 10:15 41.23685 -8.67352 258 ft 4 kts 338°
2026-05-08 10:15 41.23710 -8.67378 258 ft 5 kts 314°
2026-05-08 10:16 41.23735 -8.67420 258 ft 6 kts 306°
2026-05-08 10:16 41.23766 -8.67464 258 ft 6 kts 340°
2026-05-08 10:16 41.23813 -8.67473 258 ft 7 kts 351°
2026-05-08 10:16 41.23864 -8.67484 258 ft 8 kts 351°
2026-05-08 10:17 41.23923 -8.67500 256 ft 8 kts 347°
2026-05-08 10:17 41.23990 -8.67520 253 ft 12 kts 349°
2026-05-08 10:17 41.24084 -8.67545 250 ft 15 kts 348°
2026-05-08 10:17 41.24193 -8.67574 248 ft 17 kts 349°
2026-05-08 10:18 41.24284 -8.67673 245 ft 18 kts 313°
2026-05-08 10:18 41.24394 -8.67734 245 ft 17 kts 349°
2026-05-08 10:18 41.24517 -8.67763 242 ft 19 kts 349°
2026-05-08 10:18 41.24658 -8.67797 237 ft 22 kts 350°
2026-05-08 10:19 41.24805 -8.67859 232 ft 23 kts 332°
2026-05-08 10:19 41.24969 -8.67941 227 ft 28 kts 347°
2026-05-08 10:19 41.25182 -8.67998 215 ft 34 kts 350°
2026-05-08 10:20 41.25620 -8.68107 208 ft 13 kts 348°
2026-05-08 10:20 41.25675 -8.68179 209 ft 10 kts 276°
2026-05-08 10:20 41.25673 -8.68212 209 ft 0 kts 263°
2026-05-08 10:22 41.25673 -8.68218 209 ft 3 kts 262°
2026-05-08 10:22 41.25665 -8.68276 210 ft 10 kts 263°
2026-05-08 10:23 41.25643 -8.68342 211 ft 7 kts 175°
2026-05-08 10:23 41.25624 -8.68338 210 ft 0 kts 167°
2026-05-08 10:23 41.25619 -8.68336 215 ft 8 kts 167°
2026-05-08 10:24 41.25230 -8.68235 218 ft 104 kts 169°
2026-05-08 10:24 41.24290 -8.67996 423 ft 155 kts 170°
2026-05-08 10:24 41.23227 -8.67742 1408 ft 156 kts 170°
2026-05-08 10:24 41.22080 -8.67479 2163 ft 178 kts 172°
2026-05-08 10:25 41.20772 -8.67151 2756 ft 209 kts 169°
2026-05-08 10:25 41.19253 -8.66761 3568 ft 235 kts 170°
2026-05-08 10:25 41.17576 -8.66314 4605 ft 252 kts 168°
2026-05-08 10:25 41.15844 -8.65835 6010 ft 256 kts 169°
2026-05-08 10:26 41.14088 -8.65352 7405 ft 260 kts 169°
2026-05-08 10:26 41.12295 -8.64866 8721 ft 265 kts 170°
2026-05-08 10:26 41.10465 -8.64374 10000 ft 269 kts 171°
2026-05-08 10:26 41.08572 -8.63874 10769 ft 292 kts 171°
2026-05-08 10:27 41.06469 -8.63584 11369 ft 316 kts 179°
2026-05-08 10:27 41.04220 -8.63462 12237 ft 328 kts 179°
2026-05-08 10:27 41.01899 -8.63341 13245 ft 336 kts 180°
2026-05-08 10:27 40.99535 -8.63220 14212 ft 343 kts 180°
2026-05-08 10:28 40.97127 -8.63095 15118 ft 350 kts 180°
2026-05-08 10:28 40.94696 -8.62969 16111 ft 356 kts 180°
2026-05-08 10:28 40.92196 -8.62840 17088 ft 362 kts 180°
2026-05-08 10:28 40.89657 -8.62709 18022 ft 369 kts 181°
2026-05-08 10:29 40.87069 -8.62575 18821 ft 374 kts 180°
2026-05-08 10:29 40.84448 -8.62436 19644 ft 378 kts 180°
2026-05-08 10:29 40.81807 -8.62292 20476 ft 381 kts 180°
2026-05-08 10:29 40.79171 -8.62150 21256 ft 384 kts 181°
2026-05-08 10:30 40.76477 -8.62008 22105 ft 388 kts 181°
2026-05-08 10:30 40.73766 -8.61863 22931 ft 391 kts 180°
2026-05-08 10:30 40.71036 -8.61716 23689 ft 394 kts 180°
2026-05-08 10:30 40.68279 -8.61555 24323 ft 398 kts 180°
2026-05-08 10:31 40.65539 -8.61299 24934 ft 401 kts 178°
2026-05-08 10:31 40.62745 -8.60957 25543 ft 405 kts 177°
2026-05-08 10:31 40.59924 -8.60573 26142 ft 408 kts 176°
2026-05-08 10:31 40.57085 -8.60180 26677 ft 413 kts 178°
2026-05-08 10:32 40.54208 -8.59796 26894 ft 415 kts 179°
2026-05-08 10:32 40.51326 -8.59428 26938 ft 415 kts 179°
2026-05-08 10:32 40.48475 -8.59083 26937 ft 415 kts 179°
2026-05-08 10:32 40.45601 -8.58743 26936 ft 414 kts 179°
2026-05-08 10:33 40.42717 -8.58403 26937 ft 414 kts 179°
2026-05-08 10:33 40.39839 -8.58060 26936 ft 414 kts 179°
2026-05-08 10:33 40.37004 -8.57718 26937 ft 414 kts 179°
2026-05-08 10:33 40.34127 -8.57368 26936 ft 414 kts 179°
2026-05-08 10:34 40.31241 -8.57013 26934 ft 414 kts 179°
2026-05-08 10:34 40.28374 -8.56662 26934 ft 414 kts 179°
2026-05-08 10:34 40.25525 -8.56315 26927 ft 414 kts 179°
2026-05-08 10:34 40.22668 -8.55967 26684 ft 410 kts 179°
2026-05-08 10:35 40.19826 -8.55628 26429 ft 406 kts 180°
2026-05-08 10:35 40.17069 -8.55802 26176 ft 397 kts 195°
2026-05-08 10:35 40.14419 -8.56774 25917 ft 392 kts 201°
2026-05-08 10:35 40.11823 -8.57822 25662 ft 389 kts 201°
2026-05-08 10:36 40.09238 -8.58872 25411 ft 388 kts 201°
2026-05-08 10:36 40.06667 -8.59917 25164 ft 386 kts 201°
2026-05-08 10:36 40.04126 -8.60946 24922 ft 385 kts 201°
2026-05-08 10:36 40.01563 -8.61980 24676 ft 384 kts 201°
2026-05-08 10:37 39.99111 -8.62966 24444 ft 383 kts 201°
2026-05-08 10:37 39.98597 -8.63172 24397 ft 383 kts 201°
2026-05-08 10:38 39.96308 -8.64094 24184 ft 382 kts 201°
2026-05-08 10:38 39.93797 -8.65107 23943 ft 381 kts 201°
2026-05-08 10:38 39.91267 -8.66128 23685 ft 380 kts 201°
2026-05-08 10:39 39.88743 -8.67144 23451 ft 378 kts 201°
2026-05-08 10:39 39.86227 -8.68155 23173 ft 377 kts 201°
2026-05-08 10:39 39.83708 -8.69166 22894 ft 376 kts 201°
2026-05-08 10:39 39.81233 -8.70161 22626 ft 375 kts 201°
2026-05-08 10:40 39.78742 -8.71161 22255 ft 370 kts 201°
2026-05-08 10:40 39.76302 -8.72137 21717 ft 363 kts 201°
2026-05-08 10:40 39.73905 -8.73093 21178 ft 357 kts 201°
2026-05-08 10:40 39.71575 -8.74024 20656 ft 353 kts 201°
2026-05-08 10:41 39.69240 -8.74960 20107 ft 349 kts 200°
2026-05-08 10:41 39.66923 -8.75888 19574 ft 345 kts 200°
2026-05-08 10:41 39.64624 -8.76806 19027 ft 344 kts 200°
2026-05-08 10:41 39.62342 -8.77715 18476 ft 342 kts 200°
2026-05-08 10:42 39.60100 -8.78610 17875 ft 341 kts 200°
2026-05-08 10:42 39.57830 -8.79514 17293 ft 339 kts 200°
2026-05-08 10:42 39.55579 -8.80411 16724 ft 336 kts 200°
2026-05-08 10:42 39.53350 -8.81299 16162 ft 334 kts 200°
2026-05-08 10:43 39.51133 -8.82181 15601 ft 332 kts 200°
2026-05-08 10:43 39.48926 -8.83056 15053 ft 330 kts 200°
2026-05-08 10:43 39.46758 -8.83913 14504 ft 328 kts 199°
2026-05-08 10:43 39.44579 -8.84776 13950 ft 327 kts 200°
2026-05-08 10:44 39.42400 -8.85643 13357 ft 326 kts 199°
2026-05-08 10:44 39.40966 -8.86214 12964 ft 325 kts 199°
2026-05-08 10:44 39.38113 -8.87348 12213 ft 320 kts 199°
2026-05-08 10:44 39.36675 -8.87919 11827 ft 319 kts 199°
2026-05-08 10:45 39.34585 -8.88746 11262 ft 317 kts 199°
2026-05-08 10:45 39.32481 -8.89574 10681 ft 315 kts 198°
2026-05-08 10:45 39.30393 -8.90394 10312 ft 307 kts 198°
2026-05-08 10:45 39.28401 -8.91176 10202 ft 292 kts 199°
2026-05-08 10:46 39.26495 -8.91927 10049 ft 281 kts 198°
2026-05-08 10:46 39.24648 -8.92660 9972 ft 276 kts 198°
2026-05-08 10:46 39.22832 -8.93381 9905 ft 275 kts 198°
2026-05-08 10:46 39.20994 -8.94105 9467 ft 278 kts 198°
2026-05-08 10:47 39.19158 -8.94829 9070 ft 273 kts 198°
2026-05-08 10:47 39.17347 -8.95541 8606 ft 271 kts 198°
2026-05-08 10:47 39.15547 -8.96248 8115 ft 269 kts 198°
2026-05-08 10:47 39.13760 -8.96949 7630 ft 265 kts 198°
2026-05-08 10:48 39.12007 -8.97635 6810 ft 262 kts 197°
2026-05-08 10:48 39.10268 -8.98317 6225 ft 264 kts 198°
2026-05-08 10:48 39.08529 -8.99002 5668 ft 257 kts 198°
2026-05-08 10:48 39.06830 -8.99671 4833 ft 253 kts 197°
2026-05-08 10:49 39.05195 -9.00314 4521 ft 231 kts 197°
2026-05-08 10:49 39.03771 -9.00873 4464 ft 203 kts 197°
2026-05-08 10:49 39.02452 -9.01390 4403 ft 196 kts 197°
2026-05-08 10:49 39.01146 -9.01902 4356 ft 195 kts 197°
2026-05-08 10:50 38.99843 -9.02412 4306 ft 195 kts 197°
2026-05-08 10:50 38.98546 -9.02830 4263 ft 194 kts 196°
2026-05-08 10:50 38.97263 -9.03373 4131 ft 195 kts 200°
2026-05-08 10:50 38.96005 -9.04011 3907 ft 193 kts 201°
2026-05-08 10:51 38.94788 -9.04658 3665 ft 184 kts 202°
2026-05-08 10:51 38.93642 -9.05272 3424 ft 173 kts 202°
2026-05-08 10:51 38.92555 -9.05857 3198 ft 165 kts 201°
2026-05-08 10:51 38.91520 -9.06413 2955 ft 158 kts 201°
2026-05-08 10:52 38.90518 -9.06951 2756 ft 154 kts 201°
2026-05-08 10:52 38.89545 -9.07474 2561 ft 151 kts 200°
2026-05-08 10:52 38.88577 -9.07994 2350 ft 151 kts 201°
2026-05-08 10:52 38.87637 -9.08498 2155 ft 144 kts 201°
2026-05-08 10:53 38.86740 -9.08980 1961 ft 136 kts 200°
2026-05-08 10:53 38.85905 -9.09429 1810 ft 123 kts 200°
2026-05-08 10:53 38.85132 -9.09843 1642 ft 120 kts 200°
2026-05-08 10:53 38.84365 -9.10254 1466 ft 118 kts 198°
2026-05-08 10:54 38.83616 -9.10655 1309 ft 118 kts 198°
2026-05-08 10:54 38.82851 -9.11068 1128 ft 123 kts 200°
2026-05-08 10:54 38.82047 -9.11500 975 ft 125 kts 198°
2026-05-08 10:54 38.81256 -9.11921 791 ft 128 kts 198°
2026-05-08 10:55 38.80435 -9.12358 643 ft 125 kts 199°
2026-05-08 10:55 38.79630 -9.12799 423 ft 124 kts 195°
2026-05-08 10:55 38.78842 -9.13213 359 ft 115 kts 196°
2026-05-08 10:55 38.78196 -9.13553 348 ft 79 kts 203°
2026-05-08 10:56 38.77850 -9.13741 350 ft 29 kts 200°
2026-05-08 10:56 38.77669 -9.13839 348 ft 28 kts 204°
2026-05-08 10:56 38.77479 -9.13900 345 ft 28 kts 185°
2026-05-08 10:56 38.77295 -9.13893 351 ft 26 kts 177°
2026-05-08 10:57 38.77226 -9.13889 346 ft 0 kts 177°
2026-05-08 10:58 38.77206 -9.13887 352 ft 5 kts 174°
2026-05-08 10:58 38.77174 -9.13843 347 ft 9 kts 108°
2026-05-08 10:58 38.77188 -9.13750 349 ft 11 kts 59°
2026-05-08 10:59 38.77252 -9.13705 352 ft 11 kts 40°
2026-05-08 10:59 38.77279 -9.13616 356 ft 13 kts 76°
2026-05-08 10:59 38.77300 -9.13502 351 ft 15 kts 67°
2026-05-08 10:59 38.77326 -9.13361 347 ft 19 kts 83°
2026-05-08 11:00 38.77298 -9.13251 356 ft 13 kts 160°
2026-05-08 11:00 38.77203 -9.13226 356 ft 10 kts 167°
2026-05-08 11:00 38.77198 -9.13186 353 ft 5 kts 63°
2026-05-08 11:00 38.77208 -9.13151 355 ft 0 kts 72°
2026-05-08 11:01 38.77208 -9.13150 354 ft 0 kts 72°